Weather Roundup
Issued by NWS

Home | Current Version | Previous Version | Graphics & Text | Print | Product List | Glossary Off
Versions: 1 2 3 4 5 6 7 8 9 10 11 12 13 14 15 16 17 18 19 20 21 22 23 24 25 26 27 28 29 30 31 32 33 34 35 36 37 38 39 40 41 42 43 44 45 46 47 48 49 50

687
NZUS93 KARX 180710
HRRWXR

CURRENT HOURLY OBSERVATIONS ACROSS
MUCH OF THE UPPER MISSISSIPPI VALLEY
NATIONAL WEATHER SERVICE LA CROSSE WI
200 AM CDT WED OCT 18 2017


...SOUTHEAST MINNESOTA...


CITY           SKY/WX    TMP DP  RH WIND       PRES   REMARKS
ROCHESTER      CLEAR     51  45  79 S14       29.96F
ROCHESTER/MAYO FAIR      55  44  66 S7        29.95F
WINONA         CLEAR     59  45  58 SW6       29.97S
AUSTIN         CLEAR     48  43  81 S6        29.96F
ALBERT LEA     CLEAR     55  46  71 S7        29.94F
DODGE CENTER   CLEAR     52  43  71 S10       29.94F
PRESTON        CLEAR     52  43  73 S9G18     29.99S
OWATONNA       CLEAR     52  45  76 S10       29.92F
FARIBAULT      CLEAR     52  45  76 S5        29.92F
$$

...ELSEWHERE IN MINNESOTA...


CITY           SKY/WX    TMP DP  RH WIND       PRES   REMARKS
MINNEAPOLIS    CLEAR     59  46  62 S9        29.88F
INTNL FALLS    CLEAR     57  38  48 S8        29.64F
DULUTH         CLEAR     54  41  61 SW14      29.80F
RED WING       CLEAR     57  43  58 SE3       29.91F
REDWOOD FALLS  CLEAR     55  44  66 S14       29.83F
MANKATO        CLEAR     50  44  80 S7        29.90F
WORTHINGTON    CLEAR     55  44  66 S10       29.89F
FAIRMONT       CLEAR     49  44  83 S8        29.91F
$$

...SOUTHWEST WISCONSIN...


CITY           SKY/WX    TMP DP  RH WIND       PRES   REMARKS
LA CROSSE      CLEAR     58  46  64 S8        29.99S
PRAIRIE DU CHI CLEAR     57  42  57 CALM      30.03S
BOSCOBEL       CLEAR     44  42  93 CALM      30.05S FOG
LONE ROCK      CLEAR     49  43  80 SE3       30.05F
PLATTEVILLE    CLEAR     50  44  79 S7        30.07S
FORT MC COY    CLEAR     52  44  73 S5        30.01S
CAMP DOUGLAS   CLEAR     57  44  62 S12       30.01S
MAUSTON-NEW LI SUNNY     55  44  67 S6        30.01S
VIROQUA        FAIR      54  45  70 S8        30.02S
WIS DELLS      CLEAR     54  41  62 S9        30.04F
$$

...ELSEWHERE IN WISCONSIN...


CITY           SKY/WX    TMP DP  RH WIND       PRES   REMARKS
MILWAUKEE      PTCLDY    55  42  61 SW10      30.11S
MADISON        NOT AVBL
GREEN BAY      CLEAR     55  47  74 S8        30.02S
EAU CLAIRE     CLEAR     48  45  89 S5        29.93S
BLACK RVR FLS  FAIR      43  43 100 S5        29.98S
MEDFORD        CLEAR     52  43  71 S9        29.96F
WAUSAU         CLEAR     49  44  83 SE3       29.97S
WIS RAPIDS     CLEAR     51  45  79 S6        30.01S
MARSHFIELD     CLEAR     48  41  76 S9        29.98S
RICE LAKE      CLEAR     49  43  79 SE5       29.92S
$$

...NORTHEAST IOWA...


CITY           SKY/WX    TMP DP  RH WIND       PRES   REMARKS
WATERLOO       CLEAR     50  44  80 S7        30.01F
DUBUQUE        CLEAR     48  42  80 S9        30.07S
DECORAH        CLEAR     55  45  67 S8        30.00S
MASON CITY     CLEAR     46  42  86 S8        29.98F
CHARLES CITY   CLEAR     50  46  87 S7        30.00F
OELWEIN        CLEAR     50  45  81 S10       30.03F
$$

...ELSEWHERE IN IOWA...


CITY           SKY/WX    TMP DP  RH WIND       PRES   REMARKS
DES MOINES     CLEAR     55  46  71 S12       30.01F
IOWA CITY      CLEAR     52  43  71 S3        30.09S
FORT DODGE     CLEAR     52  45  77 S7        29.96F
MARSHALLTOWN   CLEAR     54  46  74 S10       30.00F
CEDAR RAPIDS   CLEAR     50  43  77 S7        30.06S
$$

...NORTHERN ILLINOIS...


CITY           SKY/WX    TMP DP  RH WIND       PRES   REMARKS
CHICAGO-OHARE  CLEAR     54  40  59 SW10      30.14S
CHICAGO-MIDWAY CLEAR     53  41  63 S6        30.16R
MOLINE         CLEAR     54  41  61 S8        30.10S
ROCKFORD       CLEAR     48  41  76 S3        30.14S
PEORIA         CLEAR     50  41  71 S8        30.15F
$$

NOTE: "FAIR" INDICATES FEW OR NO CLOUDS BELOW 12,000 FEET WITH NO
SIGNIFICANT WEATHER AND/OR OBSTRUCTIONS TO VISIBILITY. WIND
SPEEDS ARE IN MILES-PER-HOUR.




USA.gov is the U.S. government's official web portal to all federal, state and local government web resources and services.